This is the latest recevied weather packets stored in our database for station/object KI4NG. If no packets are shown the sender has not sent any weather packets the latest 10 day(s).
| Time | Temp. | Humidity | Pressure | Rain* | Wind** | Luminosity | Snow |
|---|---|---|---|---|---|---|---|
| 1777812849 | 6.11° C | 88% | 1022 hPa | 0 mm | - | 183 W/m² | - |
| 1777812545 | 5.56° C | 91% | 1022 hPa | 0 mm | - | 115 W/m² | - |
| 1777812243 | 5° C | 93% | 1022.1 hPa | 0 mm | - | 95 W/m² | - |
| 1777811941 | 4.44° C | 96% | 1021.9 hPa | 0 mm | - | 80 W/m² | - |
| 1777811640 | 4.44° C | 98% | 1021.9 hPa | 0 mm | - | 76 W/m² | - |
| 1777811340 | 3.89° C | 99% | 1022 hPa | 0 mm | - | 68 W/m² | - |
| 1777811037 | 3.33° C | 99% | 1021.9 hPa | 0 mm | - | 52 W/m² | - |
| 1777810734 | 2.78° C | 99% | 1021.6 hPa | 0 mm | - | 48 W/m² | - |
| 1777810430 | 2.78° C | 99% | 1021.9 hPa | 0 mm | - | 46 W/m² | - |
| 1777810126 | 2.78° C | 99% | 1021.6 hPa | 0 mm | - | 45 W/m² | - |
| 1777809824 | 2.22° C | 99% | 1021.3 hPa | 0 mm | - | 43 W/m² | - |
| 1777809522 | 2.22° C | 99% | 1021.7 hPa | 0 mm | - | 41 W/m² | - |
| 1777809219 | 2.22° C | 99% | 1021.4 hPa | 0 mm | - | 39 W/m² | - |
| 1777808917 | 2.22° C | 99% | 1021.5 hPa | 0 mm | - | 37 W/m² | - |
| 1777808613 | 2.22° C | 99% | 1021.5 hPa | 0 mm | - | 35 W/m² | - |
| 1777808310 | 2.22° C | 99% | 1021.2 hPa | 0 mm | - | 33 W/m² | - |
| 1777808010 | 1.67° C | 99% | 1021.1 hPa | 0 mm | - | 30 W/m² | - |
| 1777807706 | 1.67° C | 99% | 1021.1 hPa | 0 mm | - | 27 W/m² | - |
| 1777807405 | 1.67° C | 99% | 1021.1 hPa | 0 mm | - | 25 W/m² | - |
| 1777807104 | 1.67° C | 99% | 1021.1 hPa | 0 mm | - | 22 W/m² | - |
| 1777806802 | 1.67° C | 99% | 1021 hPa | 0 mm | - | 19 W/m² | - |
| 1777806498 | 1.67° C | 99% | 1020.9 hPa | 0 mm | - | 15 W/m² | - |
| 1777806195 | 1.67° C | 99% | 1020.8 hPa | 0 mm | - | 12 W/m² | - |
| 1777805891 | 1.67° C | 99% | 1020.9 hPa | 0 mm | - | 9 W/m² | - |
| 1777805589 | 1.67° C | 99% | 1020.7 hPa | 0 mm | - | 7 W/m² | - |
* Rain latest hour (hover to see other rain measurements)
** Current wind speed in m/s (hover to see current wind gust speed)